User: anonymous
Location: Unspecified
(0.0000°N, 0.0000°E)
Time: 22:11:24
(UTC+00:00)
Language:

Vanguard 2 Rocket - Orbit

View from above orbital plane
View from above orbital plane
View from above satellite
View from above satellite

Ground track
Ground track

The orbit data is extracted from the following two-line orbital elements,

1 00012U 59001B   14105.94269999  .00002193  00000-0  13182-2 0  8098
2 00012 032.8994 314.8543 1670632 109.0868 269.7562 11.43076478264319
Epoch (UTC): 15 April 2014 22:37:29
Eccentricity: 0.1670632
inclination: 32.8994°
perigee height: 555 km
apogee height: 3337 km
right ascension of ascending node: 314.8543°
argument of perigee: 109.0868°
revolutions per day: 11.43076478
mean anomaly at epoch: 269.7562°
orbit number at epoch: 26431

The dashed part of the orbit path shows where the satellite is in the earth's shadow,  

DLR